Weather in Shugur

Russia / Khanty-Mansi Autonomous Okrug — Yugra     60°13′05″N   66°28′33″E
temp.,
°C
wind,
m/s
gust,
m/s
humid.,
%
clouds,
%
prec.,
mm/h
press.,
hPa
HPBL,
m
6 march, sat
sat623:00−9e1197100 0.6 99621
02:00−10e1197100 0.3 99521
05:00−10ne1197100 0.7 99621
08:00−10nnw2396100 0.4 99680
11:00−9nw2394100 0.8 997265
14:00−8wnw3493100 0.4 999412
17:00−8w3594100 0.8 1000411
20:00−11w2596100 0.2 1001131
7 march, sun
sun723:00−11wnw2496100 0.5 1003125
02:00−12wnw3696100 0.1 1004186
05:00−17wnw339789 0.1 100669
08:00−21wnw23962 0.0 100841
11:00−17wsw23861 0.0 1010192
14:00−14ssw23870 0.0 1010357
17:00−15se119525 0.0 100920
20:00−17se239876 0.0 100922
8 march, mon
mon823:00−18se129988 0.1 100820
02:00−20ene1210082 0.0 100720
05:00−20nne2310091 0.1 100632
08:00−22n239997 0.0 100548
11:00−18nnw349590 0.1 1005228
14:00−15nw349259 0.0 1005318
17:00−16wnw229458 0.0 100662
20:00−21w129846 0.0 100720
9 march, tue
tue923:00−22sse019670 0.0 100820
02:00−20ese229499 0.0 100821
05:00−18ese3597100 0.1 1008161
08:00−18ese369795 0.1 1007172
11:00−14ese479597 0.1 1005320
14:00−11e6994100 0.1 1002425
17:00−10e61094100 1.3 998645
20:00−9e51095100 1.8 996505
10 march, wed
wed1023:00−10ne5995100 3.9 996432
02:00−16nnw61194100 0.6 999392
05:00−21nw4895100 0.9 1004321
08:00−25nw359759 0.0 100799
11:00−21nnw239551 0.0 1009244
14:00−18nnw229088 0.0 1009354
17:00−19nw129594 0.0 100971
20:00−23nw129975 0.0 100920